This demonstration page uses our WeatherBlox Daily Observations layout. Learn more.

36.19886, -115.1175

Hourly Observations for July 13, 2019

Temp ( °F °C ) Dew Point ( °F °C ) Humidity (%) Winds ( mph kmh ) Pressure ( in mb ) Visibility ( mi km ) Precip ( " mm )
12:53 am 00:53 Clear 87 30.6 49 9.4 27 27 NW 3 6 29.77 1008 10 16.09344 0 0
1:53 am 01:53 Clear 86 30 48 8.9 27 27 NNW 5 7 29.77 1008 10 16.09344 0 0
2:53 am 02:53 Clear 84 28.9 48 8.9 29 29 WNW 3 6 29.77 1008 10 16.09344 0 0
3:53 am 03:53 Clear 83 28.3 48 8.9 30 30 NW 3 6 29.77 1008 10 16.09344 0 0
4:53 am 04:53 Clear 81 27.2 48 8.9 32 32 NW 5 7 29.8 1009 10 16.09344 0 0
5:53 am 05:53 Sunny 82 27.8 48 8.9 31 31 WNW 6 9 29.8 1009 10 16.09344 0 0
6:53 am 06:53 Sunny 82 27.8 50 10 33 33 N 3 6 29.83 1010 10 16.09344 0 0
7:53 am 07:53 Sunny 89 31.7 47 8.3 23 23 ENE 3 6 29.83 1010 10 16.09344 0 0
8:53 am 08:53 Sunny 92 33.3 45 7.2 20 20 ESE 5 7 29.83 1010 10 16.09344 0 0
9:53 am 09:53 Sunny 95 35 44 6.7 17 17 SSE 6 9 29.83 1010 10 16.09344 0 0
10:53 am 10:53 Sunny 98 36.7 43 6.1 15 15 Calm 29.83 1010 10 16.09344 0 0
11:53 am 11:53 Sunny 101 38.3 42 5.6 13 13 Calm 29.83 1010 10 16.09344 0 0
12:53 pm 12:53 Sunny 106 41.1 40 4.4 10 10 undefined N/A 29.8 1009 10 16.09344 0 0
1:53 pm 13:53 Sunny 106 41.1 32 0 8 8 VRB 7 11 29.77 1008 10 16.09344 0 0
2:53 pm 14:53 Sunny 108 42.2 32 0 7 7 WSW 15 24 29.77 1008 10 16.09344 0 0
3:53 pm 15:53 Sunny 109 42.8 35 1.7 8 8 WSW 17 28 29.74 1007 10 16.09344 0 0
4:53 pm 16:53 Sunny 109 42.8 36 2.2 8 8 SW 13 20 29.74 1007 10 16.09344 0 0
5:53 pm 17:53 Sunny 108 42.2 37 2.8 9 9 WSW 14 22 29.71 1006 10 16.09344 0 0
6:53 pm 18:53 Sunny 106 41.1 35 1.7 9 9 SW 13 20 29.74 1007 10 16.09344 0 0
7:53 pm 19:53 Sunny 104 40 34 1.1 9 9 WSW 9 15 29.74 1007 10 16.09344 0 0
8:53 pm 20:53 Clear 102 38.9 36 2.2 10 10 W 7 11 29.74 1007 10 16.09344 0 0
9:53 pm 21:53 Clear 98 36.7 38 3.3 12 12 W 7 11 29.77 1008 10 16.09344 0 0
10:53 pm 22:53 Clear 97 36.1 39 3.9 13 13 WSW 7 11 29.77 1008 10 16.09344 0 0
11:53 pm 23:53 Clear 96 35.6 43 6.1 16 16 SW 9 15 29.8 1009 10 16.09344 0 0

Powered by AerisWeather